SUBSCRIBTION

PACKAGES ONE WEEK TWO WEEKS ONE MONTH
Number of matches: 7 matches 14 matches 30 matches
Type: 1,X,2 or Goals 1,X,2 or Goals 1,X,2 or Goals
Odd: over 2.00 over 2.00 over 2.00
Bonus matches: included included included
Strong Sources: included included included
Price:   65 euros    95 euros  200 euros

*We will not responde of any type of message for free matches!

 


SUBSCRIBTION ARCHIVE​

FEBRUARY 2019

DATE MATCH PICK ODD RESULT  
01.02.2019   Kilmarnock – Hearts 2 3.20 1:2
02.02.2019 Peterborough – Plymouth 2 4.50 0:1
03.02.2019 Boavista – Botafogo RJ 2 4.90 0:3
04.02.2019 Victoriano A. – San Martin Burzaco 2 5.10 0:3
05.02.2019 Al-Nahda – Al Ansar 1 2.65 4:0
06.02.2019 Remo Stars – MFM FC 2 5.85 0:1
07.02.2019 Bilje (Slo) – ND Gorica (Slo) 1 4.55 2:1
08.02.2019 Grenoble – Lorient 2 3.25 0:1
09.02.2019 Juventud Unida S. M. – Deportivo Muniz 2 4.50 0:2
10.02.2019 Central SC – Afogados da Ingazeira 2 4.90 1:1 lose
11.02.2019 Al Jaish – Hottin 2 6.00 0:1
12.02.2019 Bangkok Utd (Tha) –  Ha Noi FC (Vie) 2 6.00 0:1
13.02.2019 Vigor Carpaneto – Lentigione 2 5.55 2:3
14.02.2019 Al Rayyan – Al Arabi X 3.60 3:1 lose
15.02.2019 Paderborn – FC Koln 1 3.00 3:2
16.02.2019 Ascoli – Salernitana 2 4.10 2:4
17.02.2019 Pontisola – Olginatese 2 7.80 2:3
18.02.2019 OFI Crete –  Lamia 2 4.15 1:3
19.02.2019          
20.02.2019          
21.02.2019          
22.02.2019          
23.02.2019          
24.02.2019          
25.02.2019          
26.02.2019          
27.02.2019          
28.02.2019          

JANUARY 2019

DATE MATCH PICK ODD RESULT  
01.01.2019             Bradford City – Accrington 2 2.80 3:0 lose
02.01.2019 Rio Ave – Moreirense 2 3.45 1:2
03.01.2019 Petrojet – Enppi X 3.20 1:1
04.01.2019 Pyramids – Al Ahly 1 2.70 2:1
05.01.2019 Burgess Hill – Folkestone X 4.00 0:0
06.01.2019 Preston – Doncaster 2 4.40 1:3
07.01.2019 M. Nazareth – Hapoel Afula X 3.95 1:1
08.01.2019 Bromley – Wrexham 1 2.70 2:0
09.01.2019 Pena – R. Union X 3.20 3:3
10.01.2019 Al-Faisaly  –  Al-Nassr X 3.60 2:2
11.01.2019 Club Africain (Tun) – Constantine (Alg) 2 4.35 0:1
12.01.2019 Bala – Caernarfon 2 4.00 1:3
13.01.2019 Eindhoven FC – Nijmegen 1 2.85 3:2
14.01.2019 Hapoel Bnei Lod – Nes Tziona 1 3.20 1:0
15.01.2019 Estonia – Iceland X 3.40 0:0
16.01.2019 Floresta EC – Guarany X 3.50 0:0
17.01.2019 Saudi Arabia – Qatar 2 2.70 0:2
18.01.2019 Quevilly Rouen – Cholet 2 4.00 1:2
19.01.2019 Enfield Town – Corinthian-Casuals 2 4.70 0:2
20.01.2019 Jong Sparta Rotterdam – Jong Vitesse X 4.40 1:1
21.01.2019 Norwich U23 – Leicester U23 X 3.90 1:1
22.01.2019 AlbinoLeffe – Gubbio 2 3.00 1:2
23.01.2019 Kilmarnock – Rangers 1 5.80 2:1
24.01.2019 OFI Crete – Ergotelis X 3.60 1:1
25.01.2019 Nancy – Auxerre 1 4.20 1:0
26.01.2019 Havant & W – Dover X 3.30 0:0
27.01.2019 Itumbiara – Goiania 2 3.55 0:1
28.01.2019 Jong Ajax – FC Volendam 2 5.15 1:3
29.01.2019 Mamelodi Sundowns – Amazulu 2 6.70 0:2
30.01.2019 Bizertin – Stade Tunisien 2 4.10 0:1
31.01.2019 Al-Gharafa –  Al-Duhail 1 8.70 1:0

DECEMBAR 2018

DATE MATCH PICK ODD RESULT  
01.12.2018                QPR – Hull 2 4.00 2:3
02.12.2018 Deportivo Moron – Temperley 2 4.05 1:3
03.12.2018 Al Jahra  – Al-Fahaheel 2 2.90 1:2
04.12.2018 Shmona – Yehuda 2 3.00 0:2
05.12.2018 Hapoel Hadera – H. Raanana X 3.25 0:0
06.12.2018 Comunicaciones – Sacachispas 1 2.50 1:0
07.12.2018 Barnsley U23 – Sheffield Utd U23 X 4.00 1:1
08.12.2018 Aberdeen – St Johnstone 2 4.80 0:2
09.12.2018 TuRU Dusseldorf – FSV Duisburg X 5.00 0:0
10.12.2018 Colchester U23 – Coventry U23 X 3.60 1:1
11.12.2018 Express FC – Kampala City 1 5.20 3:2
12.12.2018 Al Ain – Team Wellington X 4.70 3:3
13.12.2018 Black Forest – Prisons XI Gaborone 2 3.10 1:2
14.12.2018 Ittihad Kalba – Al Wasl 1 3.00 3:1
15.12.2018 Fulham – West Ham 2 2.60 0:2
16.12.2018 Nimes – Lille 2 3.00 2:3
17.12.2018 Atalanta – Lazio 2 3.60 1:0 lose
18.12.2018 St. Truiden – Gent 1 2.60 1:3 lose
19.12.2018 Werder Bremen – Hoffenheim X 4.00 1:1
20.12.2018 Al-Sadd – Al Khor X 6.50 2:2
21.12.2018 Le Mans – Marignane 2 4.60 2:0 lose
22.12.2018 Huddersfield – Southampton X 3.20 1:3 lose
23.12.2018 UD Los Garres – Huercal-Overa X 3.75 0:0
24.12.2018 Bugesera FC – Espoir 2 3.30 0:1
25.12.2018 Maccabi Petah Tikva – Yehuda X 2.90 1:1
26.12.2018 Gillingham – Portsmouth 1 4.50 2:0
27.12.2018 Cosenza – Salernitana X 3.00 0:0
28.12.2018 Al Wehda – Al Ahli SC 1 3.60 2:1
29.12.2018 Norwich – Derby 2 3.30 3:4
30.12.2018 Potenza – Catanzaro 2 3.00 1:5
31.12.2018 Ramat Hasharon – Beitar Tel Aviv 2 2.90 1:2

 

NOVEMBER 2018

DATE MATCH PICK ODD RESULT  
01.11.2018             Al-Shabab –  Oman FC          1 2.55 2:1
02.11.2018 Tianjin Quanjian – Beijing Guoan 2 3.55 0:0 Image result for X png
03.11.2018 Wolfsburg – Dortmund 2 2.10 0:1
04.11.2018 Kustosija – Sibenik 2 2.80 0:1
05.11.2018 Crewe U23 – Leeds U23 1 3.20 3:1
06.11.2018 Dhamk – Najran X 3.50 1:1
07.11.2018 Suwalki – Olsztyn 1 2.60 3:2
08.11.2018 Vorskla Poltava – Qarabag 2 5.50 0:1
09.11.2018 GFC Ajaccio – Troyes 1 2.70 2:1
10.11.2018 Yeovil – Stockport 2 6.40 1:3
11.11.2018 SC Angrense – Louletano 2 3.30 0:1
12.11.2018 Dep. Merlo – Central Cordoba 1 2.70 2:1
13.11.2018 Charlton – Swansea U21 2 6.40 0:1
14.11.2018 Castrovillari – Bari X 3.75 1:1
15.11.2018 Croatia – Spain 2 2.00 3:2 lose
16.11.2018 Netherlands – France 1 3.20 2:0
17.11.2018 Italy – Portugal 2 3.65 0:0 lose
18.11.2018 Pistoiese – Piacenza 1 4.00 2:0
19.11.2018 France U21 – Spain U21 X 3.40 1:1
20.11.2018 Portugal U21  – Poland U21 2 6.60 1:3
21.11.2018 Irodotos – Apollon Pontou 2 6.00 0:1
22.11.2018 Al Feiha  – Al-Hazem X 3.55 1:1
23.11.2018 AS Roma U19 – Fiorentina U19 2 4.20 1:2
24.11.2018 Goias – Brasil de Pelotas 2 6.70 0:1
25.11.2018 Edinburgh City – Inverness X 6.00 1:1
26.11.2018 Petrojet  – Smouha 1 3.20 1:0
27.11.2018 Highlands – Amazulu 2 5.00 1:2
28.11.2018 Levico Terme –  Campodarsego 1 4.40 2:1
29.11.2018 St. Liege – Sevilla 1 5.20 1:0
30.11.2018 H. Nazareth – Hapoel Bnei Lod 2 5.60 1:2

 

OCTOBER 2018

DATE MATCH PICK ODD RESULT  
01.10.2018               Ingolstadt – Union Berlin              2 2.95 1:2
02.10.2018 Crewe – Swindon 1 2.90 1:0
03.10.2018 Sutjeska – Iskra 2 3.10 3:0 Image result for X png
04.10.2018 Al-Fateh – Al-Ittihad FC 1 2.80 2:0
05.10.2018 Kustosija – Osijek 2 2 3.50 0:1
06.10.2018 Brown Adrogue – Almagro X 3.00 1:1
07.10.2018 Zhodino – Neman 1 2.10 3:0
08.10.2018 Frej – Jonkopings X 3.50 1:1
09.10.2018 Al-Nahda  – Al Qaisoma 2 3.20 2:3
10.10.2018 Mioveni Arges –  Pitesti 2 3.00 0:1
11.10.2018 Iceland U21 – Northern Ireland U21 2 5.25 0:1
12.10.2018 Denmark U21 – Poland U21 X 3.60 1:1
13.10.2018 Bayern Hof – Vach X 5.00 1:1
14.10.2018 Chelsea W – Arsenal W 2 3.35 0:5
15.10.2018 Wales U19 – Poland U19 1 3.40 2:0
16.10.2018 Liberia – Congo 1 3.90 2:1
17.10.2018 Al Qaisoma – Al Najoom 2 3.45 1:5
18.10.2018 NO MATCH X X X X
19.10.2018 Saipa – Esteghlal F.C. 2 2.50 1:2
20.10.2018 Puskas Academy – Ferencvaros 1 6.30 1:0
21.10.2018 Slaven Belupo – Gorica 2 4.00 0:1
22.10.2018 Maccabi Haifa – Netanya 2 4.10 0:2
23.10.2018 Shrewsbury – Barnsley 1 3.30 3:1
24.10.2018 Bayer Leverkusen W – Duisburg W 1 4.40 4:1
25.10.2018 Duren – Hennef X 4.00 2:2
26.10.2018 Esteghlal F.C.  – Sepahan 2 3.65 1:2
27.10.2018 Gandzasar – Ararat-Armenia X 2.90 0:0
28.10.2018 Korinthos – Panthiraikos 1 2.55 1:1 Image result for X png
29.10.2018 Inter U19 – Juventus U19 X 3.60 3:3
30.10.2018 Dover Ath.  – Dag & Red 2 3.20 0:2
31.10.2018 Nimes –  St Etienne     POSTP  

 

 

Leave a Reply

Your email address will not be published. Required fields are marked *

Histats

 

Contact

                            marbet1x2@gmail.com

 

  • Whatsapp: +389 77 706 976
Banner